STARLINK-33635, 63065

Orbit data source: Space-Track

STARLINK-33635, 63065 is a payload satellite owned by SpaceX/Seattle (US) in LEO that was launched on Fri, 21 Feb 2025 UTC via an FALCON 9 launch vehicle from the Air Force Eastern Test Range (AFETR). Payload-class satellites include a variety of spacecraft equipped with specific instruments for various scientific and technological missions. These include communications satellites like Starlink; space stations such as the ISS; scientific satellites like the Hubble; Earth observation satellites from companies like Planet Labs, Umbra, and HawkEye 360; GPS; miniature CubeSats for education and research; and military/defense satellites.

Loading next visibility...
Identifier
63065, 2025-035P
Orbit
LEO
Country
Flag of USUS
Related business
Manufacturer
SpaceX/Seattle
Mission
Operational Commercial Communications
Bus & Motor
STARLINK V2MO, Unknown motor
Mass
575 kg wet, ~530 kg dry
Launch date (UTC)
2025-02-21 (1 year ago)
Launch vehicle
FALCON 9
Launch site
Air Force Eastern Test Range (AFETR)
Object type
Payload
Rocket body
Debris
Shape & HBR
Box + 2 Pan, 17.7 m
Radar Cross Section
36.964 m², Large (>1 m²)

Expand to show TLE details & history
Last TLE update: 11 hours ago

TLE from 11 hours ago
0 STARLINK-33635
1 63065U 25035P   26171.36976370  .00012781  00000-0  47302-3 0  9991
2 63065  42.9981 287.1682 0000862 223.2966 136.7818 15.27590650 75438
Epoch: 2026-06-20T08:52Z
TLE epoch observation values (Epoch: 2026-06-20T08:52:27.583Z)
Latitude
-0.00002°
Longitude
-114.53212°
Altitude
483.223 km
Speed
7.625 km/s
True Right ascension
19h 08m 40s
True Declination
0° 00' 00"
Sunlit
Object was in full shadow at epoch
Visualization orbit readout
Latitude
Unknown
Longitude
Unknown
Altitude
Unknown
Speed
Unknown
Apparent Right ascension
Unknown
Apparent Declination
Unknown
Sunlit
N/A
Visualization observer readout
Local Sidereal Time
07:17:34
Azimuth
Unknown
Elevation
Unknown
Doppler factor
Unknown
Orbital elements
Apogee altitude
485.554 km
Perigee altitude
484.371 km
Semi-major axis
6,863.1 km
Eccentricity
0.00009
Inclination
42.9981°
RAAN
287.1682°
Arg. of periapsis
223.2966°
True anomaly
136.78856°
Mean anomaly
136.7818°
Eccentric anomaly
136.78518°
Mean motion
3.81736 °/min
Orbital period
94.31 mins
BSTAR
0.00047302
Loading maneuver chart data...
Computing Atmospheric mass density...
Loading historical data...
Loading historical data...
Loading historical data...
Loading historical data...
Loading historical data...
Loading historical data...
Loading historical data...

Documentation

Showing up to 5 results
|